Zurück zum Katalog

FENGYUN 1C DEB

AktivSSO
NORAD 38519·DEBRIS·🇨🇳 China

Gestartet May 10, 1999 von Taiyuan Satellite Launch Center

Loading…

Nächste Überflüge (nächste 24 Stunden)

TLE

AlterndSource: Space-Track

Epoche: Sep 8, 2026, 04:51 UTC

1 38519U 99025ETE 26251.20258232  .00001602  00000-0  12167-2 0  9999
2 38519  99.5524 238.0440 0172752  44.8755 316.6221 13.88547336884762

Verfolge FENGYUN 1C DEB in Echtzeit mit AllMySat

Download on the App Store